EW7966 Weather Reports


time (UTC)temp
F
wind
direction
speed
knots
gust
knots
rain 1hr
in
rain 24hr
in
rain mn
in
humidity
%
barometer
mb
20260904092505 60 217 0.9 5.2 0.00 0.00 0.00 56 1015.7
20260904092006 60 209 0.9 4.3 0.00 0.00 0.00 57 1015.6
20260904091505 60 206 1.7 2.6 0.00 0.00 0.00 58 1015.6
20260904091006 60 207 1.7 4.3 0.00 0.00 0.00 58 1015.5
20260904090505 60 207 2.6 5.2 0.00 0.00 0.00 58 1015.5
20260904090007 60 216 1.7 5.2 0.00 0.00 0.00 58 1015.4
20260904090005 60 216 1.7 5.2 0.00 0.00 0.00 58 998.7
20260904085007 61 188 0.0 2.6 0.00 0.00 0.00 57 1015.5
20260904084505 61 188 1.7 2.6 0.00 0.00 0.00 56 1015.4
20260904084007 62 188 1.7 3.5 0.00 0.00 0.00 55 1015.5
20260904083505 63 188 0.9 5.2 0.00 0.00 0.00 54 1015.6
20260904083006 63 174 3.5 5.2 0.00 0.00 0.00 54 1015.5
20260904083003 63 174 2.6 5.2 0.00 0.00 0.00 54 998.8
20260904082505 63 175 2.6 5.2 0.00 0.00 0.00 54 1015.5
20260904082006 63 190 2.6 3.5 0.00 0.00 0.00 54 1015.6
20260904081507 63 192 0.9 4.3 0.00 0.00 0.00 53 998.9
20260904080505 63 175 1.7 4.3 0.00 0.00 0.00 52 1015.7
20260904080004 63 161 0.9 5.2 0.00 0.00 0.00 53 999.0
20260904075504 63 163 2.6 5.2 0.00 0.00 0.00 53 1015.7
20260904075006 64 178 1.7 5.2 0.00 0.00 0.00 52 1015.7
20260904074506 64 202 2.6 4.3 0.00 0.00 0.00 51 1015.8
20260904074503 64 202 2.6 4.3 0.00 0.00 0.00 51 999.2
20260904074006 66 204 1.7 5.2 0.00 0.00 0.00 49 1015.9
20260904073505 66 204 2.6 7.8 0.00 0.00 0.00 49 1015.9
20260904073008 67 178 4.3 7.8 0.00 0.00 0.00 48 999.3
20260904072505 68 142 5.2 12.2 0.00 0.00 0.00 46 1016.0
20260904072007 68 178 7.8 14.8 0.00 0.00 0.00 46 1015.9
20260904071507 68 157 9.6 14.8 0.00 0.00 0.00 46 1015.7
20260904071504 68 157 8.7 14.8 0.00 0.00 0.00 46 999.1
20260904071007 68 158 9.6 13.0 0.00 0.00 0.00 46 1015.8
20260904070008 69 163 7.8 13.0 0.00 0.00 0.00 45 1015.8
20260904070005 69 163 7.0 13.0 0.00 0.00 0.00 45 999.2
20260904065507 68 153 7.8 12.2 0.00 0.00 0.00 45 1015.9
20260904065007 68 169 8.7 12.2 0.00 0.00 0.00 45 1015.9
20260904064505 69 158 7.0 12.2 0.00 0.00 0.00 45 1015.9
20260904064502 69 158 7.0 12.2 0.00 0.00 0.00 45 999.4
20260904064006 69 166 7.8 13.9 0.00 0.00 0.00 44 1015.9
20260904063508 69 154 8.7 13.9 0.00 0.00 0.00 44 1015.9
20260904063007 69 159 7.0 12.2 0.00 0.00 0.00 43 1015.9
20260904063004 69 159 7.0 12.2 0.00 0.00 0.00 43 999.4
20260904062505 70 168 7.0 12.2 0.00 0.00 0.00 43 1015.9
20260904062007 70 168 7.8 13.9 0.00 0.00 0.00 42 1015.9
20260904061509 70 150 7.8 13.9 0.00 0.00 0.00 42 999.5
20260904061506 70 150 7.8 13.9 0.00 0.00 0.00 42 1016.0
20260904060007 71 158 9.6 14.8 0.00 0.00 0.00 40 1015.9
20260904060004 71 158 9.6 14.8 0.00 0.00 0.00 40 999.5
20260904055504 71 148 8.7 14.8 0.00 0.00 0.00 40 1016.0
20260904055005 71 164 10.4 14.8 0.00 0.00 0.00 40 1016.0
20260904054506 71 174 9.6 14.8 0.00 0.00 0.00 39 999.6
20260904054504 71 174 9.6 14.8 0.00 0.00 0.00 39 1016.0
20260904054005 71 149 10.4 15.6 0.00 0.00 0.00 39 1016.0
20260904053504 71 151 8.7 14.8 0.00 0.00 0.00 39 1016.0
20260904053005 71 147 9.6 14.8 0.00 0.00 0.00 39 1016.0
20260904053002 71 169 9.6 14.8 0.00 0.00 0.00 39 999.6
20260904052505 71 163 9.6 13.9 0.00 0.00 0.00 38 1016.0
20260904052005 71 141 10.4 16.5 0.00 0.00 0.00 38 1016.0
20260904051504 72 157 10.4 16.5 0.00 0.00 0.00 37 1016.0
20260904051502 72 157 10.4 16.5 0.00 0.00 0.00 37 999.7
20260904051004 72 174 11.3 14.8 0.00 0.00 0.00 37 1016.0
20260904050006 72 174 10.4 15.6 0.00 0.00 0.00 36 1016.0
20260904050003 72 174 10.4 15.6 0.00 0.00 0.00 36 999.8
20260904045004 72 163 11.3 15.6 0.00 0.00 0.00 36 1016.0
20260904044504 72 171 11.3 15.6 0.00 0.00 0.00 36 1016.1
20260904044005 72 175 8.7 14.8 0.00 0.00 0.00 36 1016.1
20260904043504 72 143 10.4 16.5 0.00 0.00 0.00 36 1016.1
20260904043004 72 155 11.3 20.0 0.00 0.00 0.00 36 1016.2
20260904043002 72 155 10.4 20.0 0.00 0.00 0.00 36 1000.0
20260904042006 71 168 10.4 14.8 0.00 0.00 0.00 37 1016.2
20260904041504 71 181 9.6 13.0 0.00 0.00 0.00 38 1016.3
20260904041005 71 164 8.7 13.9 0.00 0.00 0.00 39 1016.4
20260904040008 71 159 6.1 13.0 0.00 0.00 0.00 38 1000.3
20260904035505 71 167 7.8 12.2 0.00 0.00 0.00 38 1016.5
20260904034558 72 158 9.6 16.5 0.00 0.00 0.00 37 1000.4
20260904034500 72 153 10.4 16.5 0.00 0.00 0.00 37 1016.5
20260904034004 72 146 11.3 16.5 0.00 0.00 0.00 37 1016.4
20260904033504 72 152 9.6 17.4 0.00 0.00 0.00 37 1016.3
20260904033002 72 162 9.6 15.6 0.00 0.00 0.00 36 1000.2
20260904032503 73 160 9.6 14.8 0.00 0.00 0.00 35 1016.1
20260904031505 73 148 10.4 15.6 0.00 0.00 0.00 34 1016.0
20260904031503 73 148 10.4 15.6 0.00 0.00 0.00 34 1000.0
20260904031005 73 162 9.6 16.5 0.00 0.00 0.00 33 1015.9
20260904030504 73 169 8.7 16.5 0.00 0.00 0.00 32 1015.9
20260904030006 74 154 9.6 13.9 0.00 0.00 0.00 29 1015.9
20260904030002 74 154 8.7 13.9 0.00 0.00 0.00 29 1000.0
20260904024503 75 172 8.7 13.0 0.00 0.00 0.00 25 1015.7
20260904024004 75 163 8.7 13.0 0.00 0.00 0.00 25 1015.6
20260904023004 75 191 7.8 12.2 0.00 0.00 0.00 25 1015.5
20260904023002 75 191 7.8 12.2 0.00 0.00 0.00 25 999.5
20260904022006 75 171 7.8 12.2 0.00 0.00 0.00 26 1015.4
20260904021504 75 169 7.8 13.0 0.00 0.00 0.00 26 1015.4
20260904021004 75 194 8.7 13.0 0.00 0.00 0.00 26 1015.3
20260904020504 75 153 7.8 13.0 0.00 0.00 0.00 26 1015.3
20260904020006 75 172 7.8 12.2 0.00 0.00 0.00 26 1015.3
20260904020003 75 172 7.8 12.2 0.00 0.00 0.00 26 999.3
20260904015503 75 165 7.0 10.4 0.00 0.00 0.00 26 1015.2
20260904014502 75 163 7.0 9.6 0.00 0.00 0.00 27 999.2
20260904014005 75 159 7.0 9.6 0.00 0.00 0.00 27 1015.2
20260904013505 76 173 6.1 9.6 0.00 0.00 0.00 26 1015.1
20260904013002 76 194 7.0 10.4 0.00 0.00 0.00 26 999.1
20260904012503 77 167 7.8 10.4 0.00 0.00 0.00 25 1015.0
20260904012004 78 171 7.0 9.6 0.00 0.00 0.00 25 1014.9
20260904011504 78 167 7.0 12.2 0.00 0.00 0.00 24 998.9
20260904011005 79 153 7.8 12.2 0.00 0.00 0.00 24 1014.9
20260904010505 79 184 7.0 13.0 0.00 0.00 0.00 23 1014.9
20260904010007 79 176 7.0 13.0 0.00 0.00 0.00 23 1014.8
20260904010003 79 176 7.0 13.0 0.00 0.00 0.00 23 998.8
20260904005504 80 158 7.8 10.4 0.00 0.00 0.00 23 1014.8
20260904005005 80 164 7.8 12.2 0.00 0.00 0.00 23 1014.9
20260904004503 81 157 7.0 15.6 0.00 0.00 0.00 23 1014.9
20260904004005 81 186 8.7 13.9 0.00 0.00 0.00 22 1014.9
20260904003504 81 165 8.7 13.9 0.00 0.00 0.00 23 1014.9
20260904003002 82 155 8.7 14.8 0.00 0.00 0.00 22 999.0
20260904002005 82 166 10.4 15.6 0.00 0.00 0.00 22 1014.9
20260904001503 83 163 10.4 15.6 0.00 0.00 0.00 21 1014.9
20260904001501 83 163 9.6 15.6 0.00 0.00 0.00 21 999.0
20260904001006 83 182 10.4 15.6 0.00 0.00 0.00 21 1014.9
20260904000008 83 119 11.3 15.6 0.00 0.00 0.00 21 1015.0
20260904000003 83 119 11.3 15.6 0.00 0.00 0.00 21 999.1
20260903234502 84 202 5.2 17.4 0.00 0.00 0.00 19 998.9
20260903234004 84 145 10.4 17.4 0.00 0.00 0.00 21 1014.9
20260903233503 84 135 10.4 13.9 0.00 0.00 0.00 21 1015.0
20260903233006 84 166 8.7 13.9 0.00 0.00 0.00 19 1015.0
20260903233002 84 166 8.7 13.9 0.00 0.00 0.00 19 999.1
20260903232005 84 131 7.8 12.2 0.00 0.00 0.00 20 1015.0
20260903231502 84 126 7.0 12.2 0.00 0.00 0.00 20 999.1
20260903231006 84 131 7.0 12.2 0.00 0.00 0.00 20 1015.1
20260903230504 84 130 7.8 14.8 0.00 0.00 0.00 19 1015.0
20260903230006 85 137 8.7 14.8 0.00 0.00 0.00 19 999.1
20260903225504 84 150 9.6 12.2 0.00 0.00 0.00 19 1015.1
20260903225006 84 120 6.1 13.0 0.00 0.00 0.00 19 1015.2
20260903224504 84 149 7.0 13.0 0.00 0.00 0.00 18 1015.2
20260903224502 84 149 6.1 13.0 0.00 0.00 0.00 18 999.2
20260903224005 84 171 7.8 13.9 0.00 0.00 0.00 19 1015.4
20260903223503 84 121 8.7 13.9 0.00 0.00 0.00 18 1015.3
20260903223005 84 143 10.4 14.8 0.00 0.00 0.00 18 1015.3
20260903223003 84 143 10.4 14.8 0.00 0.00 0.00 18 999.3
20260903222503 84 133 11.3 16.5 0.00 0.00 0.00 20 1015.3
20260903222006 84 142 12.2 16.5 0.00 0.00 0.00 20 1015.4
20260903221504 84 156 11.3 18.2 0.00 0.00 0.00 20 1015.4
20260903221502 84 156 11.3 18.2 0.00 0.00 0.00 20 999.4
20260903221005 83 122 8.7 18.2 0.00 0.00 0.00 21 1015.5
20260903220505 84 106 8.7 16.5 0.00 0.00 0.00 22 1015.5
20260903220006 83 121 10.4 13.9 0.00 0.00 0.00 22 1015.6
20260903220002 83 121 10.4 13.9 0.00 0.00 0.00 22 999.6
20260903215504 83 122 8.7 13.9 0.00 0.00 0.00 20 1015.7
20260903215004 83 121 4.3 11.3 0.00 0.00 0.00 22 1015.7
20260903214502 83 69 7.0 13.0 0.00 0.00 0.00 21 999.8
20260903214005 83 95 7.8 13.0 0.00 0.00 0.00 21 1015.9
20260903213503 83 158 10.4 13.9 0.00 0.00 0.00 21 1015.9
20260903213005 83 133 5.2 9.6 0.00 0.00 0.00 22 1000.0
20260903212006 82 107 3.5 13.0 0.00 0.00 0.00 21 1016.0
20260903211504 83 117 6.1 13.0 0.00 0.00 0.00 21 1016.1
20260903211502 83 117 6.1 13.0 0.00 0.00 0.00 21 1000.2
20260903211004 83 101 8.7 11.3 0.00 0.00 0.00 23 1016.2
20260903210504 83 191 6.1 17.4 0.00 0.00 0.00 21 1016.2
20260903210006 83 138 7.8 17.4 0.00 0.00 0.00 22 1016.3
20260903210002 83 138 7.8 17.4 0.00 0.00 0.00 22 1000.3
20260903205504 83 115 7.0 12.2 0.00 0.00 0.00 23 1016.4
20260903204503 82 138 5.2 14.8 0.00 0.00 0.00 24 1016.5
20260903204005 83 94 11.3 14.8 0.00 0.00 0.00 21 1016.5
20260903203004 83 154 7.0 12.2 0.00 0.00 0.00 22 1000.8
20260903202504 83 145 9.6 12.2 0.00 0.00 0.00 23 1016.6
20260903202006 82 161 7.8 13.9 0.00 0.00 0.00 23 1016.6
20260903201504 82 151 8.7 13.9 0.00 0.00 0.00 21 1016.7
20260903200504 82 135 8.7 15.6 0.00 0.00 0.00 23 1016.7
20260903200008 82 124 12.2 15.6 0.00 0.00 0.00 23 1001.1
20260903195005 82 144 7.8 14.8 0.00 0.00 0.00 25 1016.9
20260903194504 81 97 8.7 14.8 0.00 0.00 0.00 25 1016.9
20260903194502 81 97 8.7 14.8 0.00 0.00 0.00 25 1001.3
20260903194005 81 111 9.6 14.8 0.00 0.00 0.00 24 1016.9
20260903193504 81 159 4.3 15.6 0.00 0.00 0.00 24 1017.0
20260903193005 81 140 9.6 14.8 0.00 0.00 0.00 24 1017.1
20260903193002 81 140 9.6 14.8 0.00 0.00 0.00 24 1001.5
20260903192503 81 128 10.4 13.9 0.00 0.00 0.00 24 1017.2
20260903192006 82 190 7.0 13.0 0.00 0.00 0.00 25 1017.2
20260903191503 82 144 6.1 13.0 0.00 0.00 0.00 24 1017.3
20260903191004 81 116 8.7 15.6 0.00 0.00 0.00 25 1017.3
20260903190002 82 180 7.0 13.9 0.00 0.00 0.00 22 1001.8
20260903185504 82 205 6.1 9.6 0.00 0.00 0.00 21 1017.5
20260903185005 81 205 4.3 10.4 0.00 0.00 0.00 22 1017.4
20260903184502 81 231 2.6 10.4 0.00 0.00 0.00 22 1002.0
20260903184006 82 254 4.3 9.6 0.00 0.00 0.00 24 1017.7
20260903183505 82 266 3.5 9.6 0.00 0.00 0.00 24 1017.8
20260903183007 81 211 5.2 10.4 0.00 0.00 0.00 24 1017.8
20260903183003 81 211 4.3 10.4 0.00 0.00 0.00 24 1002.2
20260903182507 81 239 4.3 10.4 0.00 0.00 0.00 22 1018.0
20260903182005 80 232 3.5 9.6 0.00 0.00 0.00 25 1018.0
20260903181503 80 294 3.5 12.2 0.00 0.00 0.00 24 1018.0
20260903180504 80 222 2.6 7.8 0.00 0.00 0.00 25 1018.2
20260903180007 80 155 5.2 8.7 0.00 0.00 0.00 24 1018.3
20260903180003 80 155 5.2 8.7 0.00 0.00 0.00 24 1002.7
20260903175503 79 212 2.6 11.3 0.00 0.00 0.00 26 1018.3
20260903175005 79 218 4.3 11.3 0.00 0.00 0.00 24 1018.4
20260903174506 79 241 5.2 11.3 0.00 0.00 0.00 25 1018.4
20260903174006 79 309 3.5 6.1 0.00 0.00 0.00 25 1018.4
20260903173504 79 210 4.3 8.7 0.00 0.00 0.00 25 1018.5
20260903173001 79 280 1.7 12.2 0.00 0.00 0.00 26 1002.8
20260903172504 79 258 7.0 15.6 0.00 0.00 0.00 25 1018.6
20260903172005 79 254 3.5 15.6 0.00 0.00 0.00 26 1018.5
20260903171504 79 306 5.2 9.6 0.00 0.00 0.00 26 1002.8
20260903171005 79 227 3.5 10.4 0.00 0.00 0.00 26 1018.5
20260903170504 79 311 3.5 7.0 0.00 0.00 0.00 26 1018.5
20260903170006 78 276 2.6 11.3 0.00 0.00 0.00 26 1018.5
20260903170002 78 276 1.7 11.3 0.00 0.00 0.00 26 1002.9
20260903164502 77 315 3.5 8.7 0.00 0.00 0.00 26 1002.9
20260903163006 77 269 3.5 10.4 0.00 0.00 0.00 28 1018.4
20260903163001 77 269 3.5 10.4 0.00 0.00 0.00 28 1002.8
20260903162504 77 307 4.3 10.4 0.00 0.00 0.00 26 1018.3
20260903161504 77 260 3.5 12.2 0.00 0.00 0.00 29 1018.3
20260903161502 77 260 2.6 12.2 0.00 0.00 0.00 29 1002.7
20260903161004 77 289 5.2 10.4 0.00 0.00 0.00 27 1018.3
20260903160504 76 313 1.7 10.4 0.00 0.00 0.00 27 1018.4
20260903160008 76 250 4.3 10.4 0.00 0.00 0.00 29 1002.8
20260903155005 76 280 3.5 11.3 0.00 0.00 0.00 31 1018.4
20260903154602 76 269 3.5 11.3 0.00 0.00 0.00 30 1002.9
20260903153505 75 253 7.0 11.3 0.00 0.00 0.00 32 1018.4
20260903153101 75 207 4.3 8.7 0.00 0.00 0.00 31 1002.9
20260903153001 75 266 3.5 8.7 0.00 0.00 0.00 32 1018.4
20260903152504 75 247 5.2 8.7 0.00 0.00 0.00 31 1018.4
20260903152007 75 313 4.3 10.4 0.00 0.00 0.00 33 1018.4
20260903151508 74 262 5.2 10.4 0.00 0.00 0.00 32 1018.5
20260903151505 74 262 5.2 10.4 0.00 0.00 0.00 32 1003.0
20260903151006 74 313 4.3 9.6 0.00 0.00 0.00 34 1018.5
20260903150505 74 272 6.1 8.7 0.00 0.00 0.00 33 1018.5
20260903150014 73 288 1.7 9.6 0.00 0.00 0.00 36 1003.2
20260903150008 73 288 2.6 9.6 0.00 0.00 0.00 36 1018.6
20260903145007 73 261 4.3 8.7 0.00 0.00 0.00 34 1018.6
20260903144507 72 261 2.6 7.8 0.00 0.00 0.00 35 1003.2
20260903144006 72 270 3.5 7.8 0.00 0.00 0.00 35 1018.6
20260903143506 72 250 4.3 10.4 0.00 0.00 0.00 34 1018.5
20260903143014 72 247 2.6 10.4 0.00 0.00 0.00 34 1003.2
20260903143007 72 247 3.5 10.4 0.00 0.00 0.00 34 1018.5
20260903142507 71 281 3.5 7.8 0.00 0.00 0.00 35 1018.6
20260903142000 71 211 4.3 7.8 0.00 0.00 0.00 36 1018.5
20260903141507 71 220 2.6 6.1 0.00 0.00 0.00 37 1003.3
20260903140506 69 252 2.6 9.6 0.00 0.00 0.00 37 1018.5
20260903140008 69 257 1.7 6.1 0.00 0.00 0.00 42 1018.5
20260903140004 69 257 0.9 6.1 0.00 0.00 0.00 42 1003.4
20260903135507 68 203 2.6 6.1 0.00 0.00 0.00 40 1018.4
20260903135008 68 188 0.9 4.3 0.00 0.00 0.00 42 1018.5
20260903134506 67 188 2.6 4.3 0.00 0.00 0.00 40 1018.4
20260903134504 67 188 2.6 4.3 0.00 0.00 0.00 40 1003.3
20260903134007 67 188 2.6 3.5 0.00 0.00 0.00 41 1018.3
20260903133506 66 218 1.7 5.2 0.00 0.00 0.00 42 1018.2
20260903133007 66 187 2.6 7.0 0.00 0.00 0.00 41 1018.1
20260903133004 66 187 2.6 7.0 0.00 0.00 0.00 41 1003.0
20260903132007 63 207 3.5 6.1 0.00 0.00 0.00 45 1018.0
20260903131503 63 236 1.7 6.1 0.00 0.00 0.00 45 1002.9
20260903131007 62 184 0.9 4.3 0.00 0.00 0.00 47 1018.0
20260903130505 61 194 3.5 4.3 0.00 0.00 0.00 46 1018.0
20260903130010 61 197 2.6 4.3 0.00 0.00 0.00 47 1018.0
20260903130007 61 197 1.7 4.3 0.00 0.00 0.00 47 1002.9
20260903125506 61 245 1.7 5.2 0.00 0.00 0.00 46 1017.9
20260903125007 61 205 1.7 5.2 0.00 0.00 0.00 45 1017.7
20260903124506 62 173 1.7 3.5 0.00 0.00 0.00 43 1017.8
20260903124504 62 173 0.9 3.5 0.00 0.00 0.00 43 1002.7
20260903124007 64 173 1.7 3.5 0.00 0.00 0.00 42 1017.8
20260903123506 64 173 1.7 3.5 0.00 0.00 0.00 40 1017.8
20260903123007 64 173 0.9 5.2 0.00 0.00 0.00 40 1017.6
20260903123005 64 173 0.9 5.2 0.00 0.00 0.00 40 1002.6
20260903122006 63 186 4.3 7.0 0.00 0.00 0.00 42 1017.5
20260903121503 62 160 5.2 7.0 0.00 0.00 0.00 43 1002.5
20260903121007 62 173 5.2 7.8 0.00 0.00 0.00 44 1017.4
20260903120506 61 149 5.2 8.7 0.00 0.00 0.00 46 1017.3
20260903120011 60 157 5.2 7.8 0.00 0.00 0.00 49 1017.3
20260903120007 60 157 5.2 7.8 0.00 0.00 0.00 49 1002.4
20260903115505 58 150 3.5 7.8 0.00 0.00 0.00 51 1017.3
20260903115009 57 188 0.9 3.5 0.00 0.00 0.00 54 1017.2
20260903114505 58 188 0.9 3.5 0.00 0.00 0.00 53 1017.2
20260903114010 58 188 2.6 4.3 0.00 0.00 0.00 53 1017.2
20260903113505 58 188 2.6 6.1 0.00 0.00 0.00 54 1017.3
20260903113009 57 161 3.5 7.0 0.00 0.00 0.00 54 1017.3
20260903113007 57 161 3.5 7.0 0.00 0.00 0.00 54 1002.3
20260903112006 56 142 5.2 7.8 0.00 0.00 0.00 58 1017.3
20260903111505 56 138 5.2 7.8 0.00 0.00 0.00 59 1017.4
20260903111503 56 138 5.2 7.8 0.00 0.00 0.00 59 1002.4
20260903111007 56 128 0.9 1.7 0.00 0.00 0.00 59 1017.3
20260903110506 55 128 0.0 2.6 0.00 0.00 0.00 61 1017.2
20260903110007 55 128 0.9 2.6 0.00 0.00 0.00 63 1017.1
20260903110005 55 128 0.9 2.6 0.00 0.00 0.00 63 1002.1
20260903105505 55 128 0.9 3.5 0.00 0.00 0.00 64 1017.1
20260903104505 54 128 2.6 3.5 0.00 0.00 0.00 66 1017.1
20260903103505 54 128 1.7 2.6 0.00 0.00 0.00 70 1017.0
20260903103007 54 128 0.0 1.7 0.00 0.00 0.00 69 1017.0
20260903103004 54 128 0.0 1.7 0.00 0.00 0.00 69 1001.9
20260903102506 55 128 0.0 1.7 0.00 0.00 0.00 68 1017.1
20260903102006 56 128 0.0 3.5 0.00 0.00 0.00 67 1017.2
20260903101507 56 128 2.6 3.5 0.00 0.00 0.00 66 1017.2
20260903101505 56 128 2.6 3.5 0.00 0.00 0.00 66 1002.0
20260903101007 57 128 2.6 3.5 0.00 0.00 0.00 65 1017.3
20260903100506 58 240 0.0 2.6 0.00 0.00 0.00 64 1017.2
20260903100006 57 240 1.7 3.5 0.00 0.00 0.00 66 1017.1
20260903095505 57 240 2.6 3.5 0.00 0.00 0.00 67 1017.0
20260903095006 56 240 1.7 4.3 0.00 0.00 0.00 68 1017.0
20260903094505 56 207 0.9 7.0 0.00 0.00 0.00 68 1017.0
20260903094503 56 207 0.0 7.0 0.00 0.00 0.00 68 1001.8
20260903094006 56 207 3.5 7.0 0.00 0.00 0.00 69 1017.1
20260903093505 55 189 2.6 4.3 0.00 0.00 0.00 70 1017.2
20260903093006 55 189 2.6 5.2 0.00 0.00 0.00 70 1002.0